Date String (YYYY-MM-DD hh:mm:ss) UTC,Instrument flags,Ambient pressure (hPa),Sample flow (lpm),Bypass flow (lpm),Sample temperature (°C),Ambient temperature (°C),ASC tube jacket temperature (°C),LED temperature (°C),Box temperature (°C),Sample RH (%),Span deviation,Mass concentration (μg/m³),Mass concentration (μg/m³),Mass concentration (μg/m³)
DateTimeUTC,F1_M11,P_M11,Q1_M11,Q2_M11,T1_M11,T2_M11,T3_M11,T4_M11,T5_M11,U1_M11,ZSPAN_M11,X0_M11,X2_M11,X1_M11
2021-10-27 02:00:00,,0817.0,5.00,0.00,28.0,27.2,00.0,37.1,29.8,18.2,0000.0,0004.21,0001.47,0000.67
2021-10-27 02:01:00,,0817.1,5.00,0.00,28.0,27.2,00.0,37.0,29.8,18.3,0000.0,0004.54,0001.60,0000.71
2021-10-27 02:02:00,,0817.1,5.01,0.00,28.0,27.2,00.0,37.0,29.8,18.3,0000.0,0004.71,0001.65,0000.75
2021-10-27 02:03:00,,0817.1,4.99,0.00,28.0,27.2,00.0,37.0,29.8,18.3,0000.0,0004.63,0001.64,0000.78
2021-10-27 02:04:00,,0817.1,5.00,0.00,28.0,27.2,00.0,37.0,29.8,18.3,0000.0,0006.71,0001.66,0000.82
2021-10-27 02:05:00,,0817.3,5.01,0.00,28.0,27.2,00.0,37.0,29.8,18.3,0000.0,0007.65,0001.74,0000.86
2021-10-27 02:06:00,,0817.3,5.01,0.00,28.0,27.2,00.0,37.0,29.8,18.4,0000.0,0007.73,0001.78,0000.89
2021-10-27 02:07:00,,0817.3,5.00,0.00,28.0,27.2,00.0,37.0,29.8,18.4,0000.0,0007.94,0001.93,0000.95
2021-10-27 02:08:00,,0817.4,4.99,0.00,28.0,27.2,00.0,37.0,29.7,18.3,0000.0,0007.95,0001.95,0000.99
2021-10-27 02:09:00,,0817.3,5.00,0.00,28.0,27.2,00.0,37.0,29.8,18.2,0000.0,0007.82,0001.93,0001.01
2021-10-27 02:10:00,,0817.3,5.01,0.00,28.0,27.2,00.0,37.0,29.8,18.2,0000.0,0007.63,0001.89,0001.01
2021-10-27 02:11:00,,0817.3,5.00,0.00,28.0,27.2,00.0,37.0,29.8,18.1,0000.0,0008.02,0001.87,0001.00
2021-10-27 02:12:00,,0817.2,4.99,0.00,28.0,27.2,00.0,37.0,29.8,17.8,0000.0,0007.81,0001.73,0000.98
2021-10-27 02:13:00,,0817.3,5.00,0.00,28.0,27.2,00.0,37.1,29.8,17.5,0000.0,0007.67,0001.64,0000.93
2021-10-27 02:14:00,,0817.3,5.00,0.00,28.0,27.2,00.0,37.0,29.8,17.3,0000.0,0007.65,0001.64,0000.91
2021-10-27 02:15:00,,0817.4,5.00,0.00,28.0,27.2,00.0,37.0,29.8,16.9,0000.0,0005.62,0001.58,0000.88
2021-10-27 02:16:00,,0817.4,4.99,0.00,28.0,27.2,00.0,37.0,29.8,16.5,0000.0,0006.06,0001.54,0000.83
2021-10-27 02:17:00,,0817.4,5.01,0.00,28.0,27.2,00.0,37.0,29.8,15.9,0000.0,0008.05,0001.46,0000.79
2021-10-27 02:18:00,,0817.4,5.00,0.00,28.0,27.2,00.0,37.0,29.8,15.1,0000.0,0008.05,0001.30,0000.71
2021-10-27 02:19:00,,0817.5,4.99,0.00,27.9,27.2,00.0,37.0,29.8,15.1,0000.0,0008.60,0001.28,0000.66
2021-10-27 02:20:00,,0817.5,4.99,0.00,28.0,27.2,00.0,37.0,29.8,15.0,0000.0,0009.44,0001.27,0000.61
2021-10-27 02:21:00,,0817.4,5.01,0.00,27.9,27.2,00.0,37.0,29.8,14.8,0000.0,0009.34,0001.26,0000.55
2021-10-27 02:22:00,,0817.5,5.00,0.00,27.9,27.2,00.0,37.0,29.7,14.8,0000.0,0009.00,0001.27,0000.50
2021-10-27 02:23:00,,0817.5,5.00,0.00,28.0,27.2,00.0,37.0,29.7,14.4,0000.0,0009.82,0001.26,0000.45
2021-10-27 02:24:00,,0817.5,4.99,0.00,28.0,27.2,00.0,37.0,29.8,14.3,0000.0,0010.10,0001.29,0000.41
2021-10-27 02:25:00,,0817.5,4.99,0.00,27.9,27.2,00.0,37.0,29.7,14.2,0000.0,0010.27,0001.30,0000.37
2021-10-27 02:26:00,,0817.5,5.01,0.00,28.0,27.2,00.0,37.0,29.7,14.2,0000.0,0010.29,0001.24,0000.32
2021-10-27 02:27:00,,0817.5,4.99,0.00,28.0,27.2,00.0,37.0,29.7,14.2,0000.0,0010.29,0001.18,0000.28
2021-10-27 02:28:00,,0817.5,4.99,0.00,28.0,27.2,00.0,37.0,29.8,14.3,0000.0,0008.66,0001.11,0000.24
2021-10-27 02:29:00,,0817.5,5.00,0.00,28.0,27.2,00.0,37.0,29.8,14.3,0000.0,0008.27,0001.08,0000.21
2021-10-27 02:30:00,,0817.6,5.00,0.00,28.0,27.2,00.0,37.0,29.8,14.4,0000.0,0007.95,0001.04,0000.19
2021-10-27 02:31:00,,0817.6,5.00,0.00,28.0,27.2,00.0,37.0,29.7,14.4,0000.0,0007.81,0001.00,0000.17
2021-10-27 02:32:00,,0817.6,5.02,0.00,28.0,27.2,00.0,37.0,29.8,14.4,0000.0,0008.35,0000.95,0000.16
2021-10-27 02:33:00,,0817.7,5.00,0.00,28.0,27.2,00.0,37.0,29.8,14.4,0000.0,0008.16,0000.88,0000.14
2021-10-27 02:34:00,,0817.8,5.00,0.00,28.0,27.3,00.0,37.0,29.8,14.4,0000.0,0007.36,0000.83,0000.12
2021-10-27 02:35:00,,0817.8,5.02,0.00,28.0,27.3,00.0,37.0,29.8,14.4,0000.0,0006.68,0000.75,0000.12
2021-10-27 02:36:00,,0817.8,5.00,0.00,28.0,27.2,00.0,37.0,29.8,14.4,0000.0,0006.62,0000.72,0000.11
2021-10-27 02:37:00,,0817.8,5.00,0.00,28.0,27.2,00.0,37.0,29.8,14.5,0000.0,0006.64,0000.72,0000.11
2021-10-27 02:38:00,,0817.8,5.00,0.00,28.0,27.2,00.0,37.0,29.7,14.5,0000.0,0006.13,0000.76,0000.12
2021-10-27 02:39:00,,0817.8,5.00,0.00,27.9,27.2,00.0,37.0,29.7,14.6,0000.0,0005.85,0000.77,0000.12
2021-10-27 02:40:00,,0817.9,5.01,0.00,27.9,27.1,00.0,37.0,29.7,14.6,0000.0,0005.86,0000.80,0000.12
2021-10-27 02:41:00,,0817.9,4.99,0.00,27.9,27.1,00.0,37.0,29.7,14.7,0000.0,0006.23,0000.79,0000.12
2021-10-27 02:42:00,,0818.0,4.99,0.00,27.9,27.1,00.0,37.0,29.7,14.8,0000.0,0005.22,0000.77,0000.13
2021-10-27 02:43:00,,0818.0,4.99,0.00,27.9,27.1,00.0,37.0,29.7,14.7,0000.0,0005.05,0000.78,0000.12
2021-10-27 02:44:00,,0818.0,5.00,0.00,27.9,27.1,00.0,37.0,29.7,14.6,0000.0,0005.35,0000.78,0000.13
2021-10-27 02:45:00,,0817.9,4.99,0.00,27.9,27.1,00.0,37.0,29.7,14.6,0000.0,0005.43,0000.79,0000.13
2021-10-27 02:46:00,,0817.8,5.00,0.00,27.9,27.1,00.0,37.0,29.6,14.6,0000.0,0006.52,0000.78,0000.13
2021-10-27 02:47:00,,0817.8,4.99,0.00,27.9,27.1,00.0,37.0,29.6,14.7,0000.0,0007.41,0000.81,0000.13
2021-10-27 02:48:00,,0817.9,5.02,0.00,27.8,27.0,00.0,37.0,29.6,14.7,0000.0,0007.71,0000.85,0000.13
2021-10-27 02:49:00,,0817.9,5.00,0.00,27.8,27.0,00.0,37.0,29.6,14.7,0000.0,0007.66,0000.83,0000.13
2021-10-27 02:50:00,,0818.0,5.01,0.00,27.8,27.0,00.0,37.0,29.6,14.7,0000.0,0007.66,0000.83,0000.13
2021-10-27 02:51:00,,0818.0,4.98,0.00,27.8,27.0,00.0,37.0,29.6,14.8,0000.0,0007.56,0000.81,0000.12
2021-10-27 02:52:00,,0818.0,5.00,0.00,27.8,27.0,00.0,36.9,29.6,14.8,0000.0,0006.98,0000.79,0000.12
2021-10-27 02:53:00,,0818.0,5.01,0.00,27.8,27.0,00.0,36.9,29.6,14.8,0000.0,0007.01,0000.76,0000.12
2021-10-27 02:54:00,,0818.0,5.00,0.00,27.8,27.0,00.0,36.9,29.5,14.8,0000.0,0007.17,0000.72,0000.12
2021-10-27 02:55:00,,0818.0,4.99,0.00,27.8,27.0,00.0,36.9,29.5,14.9,0000.0,0006.88,0000.72,0000.13
2021-10-27 02:56:00,,0818.0,4.99,0.00,27.7,27.0,00.0,36.9,29.5,14.9,0000.0,0006.70,0000.69,0000.13
2021-10-27 02:57:00,,0818.0,5.00,0.00,27.7,27.0,00.0,36.9,29.5,14.9,0000.0,0005.52,0000.69,0000.12
2021-10-27 02:58:00,,0818.0,5.01,0.00,27.7,26.9,00.0,36.9,29.5,15.0,0000.0,0004.13,0000.63,0000.13
2021-10-27 02:59:00,,0818.0,5.00,0.00,27.7,26.9,00.0,36.9,29.5,15.0,0000.0,0003.94,0000.59,0000.13
